DW0805 Ramloese DK current weather conditions

sailwx.info

Wind from 319 at 4 knots gusting 10

Air temperature 3.3° C
Dewpoint 1.5° C

Last reported at 2015-Jan-25 09:45 UTC.
Time now 2015-Jan-25 10:22 UTC

Location: N 56°01' E 012°05'.
View on Google Maps.

See reports from other nearby stations

  
Tides and Currents Weather Stations Pressure Air Temp Water Temp Dewpoint Dewpoint Depression Visibility Wind Speed Wind Dir Waves Ship Positions
date/time (UTC)wind fromknots sea level pressurealtimeterstation pressurevisibilityair tempwater tempwave heightnotes
2015-Jan-25 09:45 319 4 gusting 10 3.3
2015-Jan-25 09:35 334 5 gusting 11 3.3
2015-Jan-25 09:25 327 5 gusting 8 2.8
2015-Jan-25 09:15 332 6 gusting 8 2.8
2015-Jan-25 09:05 324 4 gusting 8 2.8
2015-Jan-25 08:55 333 4 gusting 8 2.8
2015-Jan-25 08:45 335 6 gusting 11 2.2
2015-Jan-25 08:35 313 6 gusting 11 2.2
2015-Jan-25 08:25 331 6 gusting 10 2.2
2015-Jan-25 08:15 335 5 gusting 8 1.7
2015-Jan-25 08:05 328 5 gusting 8 1.7
2015-Jan-25 07:55 333 6 gusting 11 1.7
2015-Jan-25 07:45 323 6 gusting 11 1.7
2015-Jan-25 07:35 315 5 gusting 8 1.7
2015-Jan-25 07:25 330 3 gusting 10 1.7
2015-Jan-25 07:15 340 6 gusting 11 1.7
2015-Jan-25 07:05 330 5 gusting 10 1.7
2015-Jan-25 06:55 323 6 gusting 10 1.7
2015-Jan-25 06:45 321 7 gusting 13 1.7
2015-Jan-25 06:35 326 5 gusting 13 1.7
2015-Jan-25 06:25 312 6 gusting 13 1.7
2015-Jan-25 06:15 310 8 gusting 12 1.7
2015-Jan-25 06:05 317 7 gusting 13 1.7
2015-Jan-25 05:55 304 7 gusting 12 1.7
2015-Jan-25 05:45 291 7 gusting 12 1.7
2015-Jan-25 05:35 296 5 gusting 8 1.7
2015-Jan-25 05:25 302 5 gusting 10 1.7
2015-Jan-25 05:15 299 7 gusting 11 1.7
2015-Jan-25 05:05 291 6 gusting 12 1.1
2015-Jan-25 04:55 295 5 gusting 10 1.1
2015-Jan-25 04:45 288 4 gusting 8 1.1
2015-Jan-25 04:35 293 2 gusting 5 0.6
2015-Jan-25 04:25 293 2 gusting 5 0.6
2015-Jan-25 04:15 293 2 gusting 6 0.6
2015-Jan-25 03:55 284 2 gusting 6 0.6
2015-Jan-25 03:45 284 3 gusting 6 0.6
2015-Jan-25 03:35 292 2 gusting 7 0.6
2015-Jan-25 03:25 290 2 gusting 6 0.6
2015-Jan-25 03:15 289 4 gusting 8 1.1
2015-Jan-25 03:05 295 4 gusting 7 1.1
2015-Jan-25 02:55 286 4 gusting 7 1.1
2015-Jan-25 02:45 287 5 gusting 10 0.6
2015-Jan-25 02:35 288 4 gusting 7 0.6
2015-Jan-25 02:25 287 4 gusting 6 0.6
2015-Jan-25 02:15 287 2 gusting 6 0.6
2015-Jan-25 02:05 292 3 gusting 7 0.6
2015-Jan-25 01:55 286 4 gusting 7 0.6
2015-Jan-25 01:45 271 4 gusting 7 0.6
2015-Jan-25 01:35 279 3 gusting 6 0.6
2015-Jan-25 01:25 286 2 gusting 5 0.6
2015-Jan-25 01:15 291 4 gusting 7 1.1
2015-Jan-25 01:05 290 5 gusting 12 1.1
2015-Jan-25 00:55 290 4 gusting 10 1.1
2015-Jan-25 00:45 293 4 gusting 7 0.6
2015-Jan-25 00:35 289 4 gusting 10 0.6
2015-Jan-25 00:25 289 3 gusting 8 0.6
2015-Jan-25 00:15 292 4 gusting 10 1.1
2015-Jan-25 00:05 293 4 gusting 7 0.6
2015-Jan-24 23:55 284 4 gusting 6 -0.0
2015-Jan-24 23:45 270 2 gusting 6 -0.0
2015-Jan-24 23:35 286 0 gusting 2 -0.6
2015-Jan-24 23:25 286 -0.6
2015-Jan-24 23:15 286 0 gusting 2 -0.6
2015-Jan-24 23:05 286 2 gusting 5 -0.0
2015-Jan-24 22:55 286 1 gusting 2 -0.0
2015-Jan-24 22:45 286 1 gusting 4 -0.0
2015-Jan-24 22:35 286 1 gusting 2 -0.0
2015-Jan-24 22:25 286 1 gusting 4 -0.0
2015-Jan-24 22:15 287 2 gusting 7 -0.0
2015-Jan-24 22:05 283 2 gusting 5 -0.0
2015-Jan-24 21:55 283 1 gusting 6 -0.0
2015-Jan-24 21:45 244 0 gusting 4 -0.6
2015-Jan-24 21:35 244 1 gusting 2 -0.6
2015-Jan-24 21:25 244 0 gusting 4 -0.6
2015-Jan-24 21:15 244 -0.6
2015-Jan-24 21:05 244 -0.6
2015-Jan-24 20:55 244 -0.6
2015-Jan-24 20:45 244 -0.0
2015-Jan-24 20:35 244 -0.6
2015-Jan-24 20:25 244 -0.6
2015-Jan-24 20:15 244 -0.0
2015-Jan-24 20:05 244 -0.0
2015-Jan-24 19:55 244 -0.0
2015-Jan-24 19:45 244 -0.0
2015-Jan-24 19:35 244 -0.0
2015-Jan-24 19:25 244 -0.0
2015-Jan-24 19:15 244 0 gusting 2 -0.0
2015-Jan-24 19:05 244 0 gusting 5 -0.0
2015-Jan-24 18:55 244 1 gusting 2 -0.0
2015-Jan-24 18:45 244 1 gusting 4 0.6
2015-Jan-24 18:35 244 1 gusting 6 0.6
2015-Jan-24 18:25 232 1 gusting 5 0.6
2015-Jan-24 18:15 232 1 gusting 6 0.6
2015-Jan-24 18:05 232 2 gusting 5 0.6
2015-Jan-24 17:55 232 4 gusting 6 0.6
2015-Jan-24 17:45 240 2 gusting 6 0.6
2015-Jan-24 17:35 240 2 gusting 6 0.6
2015-Jan-24 17:25 234 2 gusting 5 -0.0
2015-Jan-24 17:15 237 3 gusting 6 -0.0
2015-Jan-24 17:05 228 2 gusting 4 -0.0
2015-Jan-24 16:55 228 1 gusting 5 -0.0
2015-Jan-24 16:45 226 4 gusting 6 -0.0
2015-Jan-24 16:35 210 4 gusting 6 -0.0
2015-Jan-24 16:25 209 4 gusting 5 -0.0
2015-Jan-24 16:15 214 4 gusting 5 -0.0
2015-Jan-24 16:05 216 4 gusting 5 -0.0
2015-Jan-24 15:55 213 4 gusting 6 -0.0
2015-Jan-24 15:45 219 6 gusting 7 -0.0
2015-Jan-24 15:35 211 4 gusting 7 -0.0
2015-Jan-24 15:25 211 6 gusting 8 -0.0
2015-Jan-24 15:15 211 7 gusting 10 -0.6
2015-Jan-24 15:05 205 7 gusting 10 -0.6
2015-Jan-24 14:55 210 7 gusting 11 -0.6
2015-Jan-24 14:45 210 7 gusting 11 -0.6
2015-Jan-24 14:35 208 6 gusting 11 -0.6
2015-Jan-24 14:25 225 7 gusting 12 -0.6
2015-Jan-24 14:15 276 6 gusting 12 -0.6
2015-Jan-24 14:05 268 7 gusting 13 -0.6
2015-Jan-24 13:55 215 8 gusting 13 -0.6
2015-Jan-24 13:45 278 10 gusting 13 -0.6
2015-Jan-24 13:35 226 10 gusting 13 -0.6
2015-Jan-24 13:25 335 9 gusting 13 -0.6
2015-Jan-24 13:15 226 10 gusting 13 -0.6
2015-Jan-24 13:05 230 10 gusting 13 -0.6
2015-Jan-24 12:55 294 8 gusting 13 -0.6
2015-Jan-24 12:45 210 8 gusting 13 -0.6
2015-Jan-24 12:35 263 7 gusting 15 -0.6
2015-Jan-24 12:25 264 11 gusting 15 -0.6
2015-Jan-24 12:15 264 8 gusting 15 -0.6
2015-Jan-24 12:05 202 10 gusting 15 -0.6
2015-Jan-24 11:55 193 10 gusting 15 -0.6
2015-Jan-24 11:45 205 10 gusting 14 -0.6
2015-Jan-24 11:35 206 10 gusting 15 -0.6
2015-Jan-24 11:25 206 10 gusting 18 -0.6
2015-Jan-24 11:15 210 13 gusting 18 -0.6
2015-Jan-24 11:05 197 11 gusting 17 -0.6
2015-Jan-24 10:55 211 13 gusting 18 -0.6
2015-Jan-24 10:45 236 8 gusting 14 -0.6
2015-Jan-24 10:35 205 11 gusting 17 -0.6
2015-Jan-24 10:25 199 9 gusting 18 -0.6
2015-Jan-24 10:15 191 11 gusting 15 -0.6
2015-Jan-24 10:05 199 9 gusting 19 -0.6
2015-Jan-24 09:55 263 11 gusting 14 -0.6
2015-Jan-24 09:45 203 10 gusting 17 -0.6
2015-Jan-24 09:35 202 12 gusting 19 -0.6
2015-Jan-24 09:25 218 17 gusting 19 -0.6
2015-Jan-24 09:15 199 12 gusting 17 -0.6
2015-Jan-24 09:05 191 11 gusting 17 -0.6
2015-Jan-24 08:55 196 10 gusting 18 -0.6
2015-Jan-24 08:45 189 10 gusting 15 -0.6
2015-Jan-24 08:35 197 11 gusting 18 -0.6
2015-Jan-24 08:25 194 11 gusting 19 -0.6
2015-Jan-24 08:15 197 13 gusting 18 -0.6
2015-Jan-24 08:05 195 12 gusting 18 -0.6
2015-Jan-24 07:55 205 12 gusting 18 -0.6
2015-Jan-24 07:45 186 13 gusting 21 -0.6
2015-Jan-24 07:35 205 13 gusting 19 -1.1
2015-Jan-24 07:25 183 13 gusting 19 -1.1
2015-Jan-24 07:15 205 15 gusting 20 -1.1
2015-Jan-24 07:05 212 15 gusting 21 -1.1
2015-Jan-24 06:55 210 14 gusting 21 -1.1
2015-Jan-24 06:45 196 11 gusting 19 -1.1
2015-Jan-24 05:45 200 15 gusting 21 -1.1
2015-Jan-24 05:35 193 15 gusting 20 -1.1
2015-Jan-24 05:25 204 13 gusting 17 -1.1
2015-Jan-24 05:15 192 12 gusting 20 -1.1
2015-Jan-24 05:05 201 12 gusting 19 -1.1
2015-Jan-24 04:55 208 14 gusting 19 -1.1
2015-Jan-24 04:45 199 13 gusting 21 -1.1
2015-Jan-24 04:35 210 13 gusting 19 -1.1
2015-Jan-24 04:25 208 14 gusting 19 -1.1
2015-Jan-24 04:15 205 13 gusting 21 -1.1
2015-Jan-24 04:05 202 14 gusting 18 -1.1
2015-Jan-24 03:55 203 12 gusting 17 -1.1
2015-Jan-24 03:45 199 11 gusting 19 -0.6
2015-Jan-24 03:35 197 14 gusting 21 -0.6
2015-Jan-24 03:25 199 15 gusting 21 -0.6
2015-Jan-24 03:15 208 14 gusting 20 -0.6
2015-Jan-24 03:05 213 15 gusting 22 -0.6
2015-Jan-24 02:55 201 15 gusting 21 -0.6
2015-Jan-24 02:45 205 18 gusting 26 -0.6
2015-Jan-24 02:35 213 13 gusting 20 -0.6
2015-Jan-24 02:25 212 13 gusting 20 -0.6
2015-Jan-24 02:15 210 15 gusting 21 -0.6
2015-Jan-24 02:05 202 14 gusting 19 -0.6
2015-Jan-24 01:55 195 15 gusting 20 -0.0
2015-Jan-24 01:45 212 11 gusting 18 -0.0
2015-Jan-24 01:35 190 12 gusting 20 -0.0
2015-Jan-24 01:25 190 11 gusting 20 -0.0
2015-Jan-24 01:15 205 10 gusting 17 -0.0
2015-Jan-24 01:05 204 12 gusting 17 -0.0
2015-Jan-24 00:55 205 12 gusting 14 -0.0
2015-Jan-24 00:45 213 10 gusting 14 -0.0
2015-Jan-24 00:35 199 9 gusting 13 -0.0
2015-Jan-24 00:25 197 10 gusting 14 -0.6
2015-Jan-24 00:15 199 6 gusting 11 -0.6
2015-Jan-24 00:05 191 7 gusting 11 -0.6
2015-Jan-23 23:55 189 7 gusting 11 -0.6
2015-Jan-23 23:45 184 6 gusting 12 -0.6
2015-Jan-23 23:35 197 6 gusting 13 -0.6
2015-Jan-23 23:25 204 6 gusting 10 -0.6
2015-Jan-23 23:15 201 8 gusting 13 -0.6
2015-Jan-23 23:05 199 7 gusting 13 -0.6
2015-Jan-23 22:55 189 8 gusting 14 -0.6
2015-Jan-23 22:45 197 8 gusting 13 -0.6
2015-Jan-23 22:35 202 8 gusting 15 -0.6
2015-Jan-23 22:25 215 10 gusting 15 -0.6
2015-Jan-23 22:15 213 11 gusting 15 -0.6
2015-Jan-23 22:05 218 10 gusting 15 -0.6
2015-Jan-23 21:55 209 8 gusting 11 -0.6
2015-Jan-23 21:45 205 7 gusting 11 -0.6
2015-Jan-23 21:35 206 7 gusting 11 -0.6
2015-Jan-23 21:25 207 6 gusting 11 -0.6
2015-Jan-23 21:15 196 5 gusting 12 -0.6
2015-Jan-23 21:05 187 7 gusting 12 -1.1
2015-Jan-23 20:55 193 8 gusting 11 -1.1
2015-Jan-23 20:45 196 6 gusting 11 -1.1
2015-Jan-23 20:35 187 7 gusting 11 -1.1
2015-Jan-23 20:25 185 6 gusting 8 -1.1
2015-Jan-23 20:15 199 5 gusting 12 -0.6
2015-Jan-23 20:05 205 6 gusting 11 -1.1
2015-Jan-23 19:55 210 6 gusting 11 -1.1
2015-Jan-23 19:45 207 7 gusting 12 -1.1
2015-Jan-23 19:35 202 7 gusting 11 -1.1
2015-Jan-23 19:25 193 4 gusting 8 -1.1
2015-Jan-23 19:15 213 6 gusting 8 -1.1
2015-Jan-23 19:05 214 7 gusting 10 -1.1
2015-Jan-23 18:55 212 6 gusting 12 -1.1
2015-Jan-23 18:45 215 7 gusting 11 -1.1
2015-Jan-23 18:35 211 8 gusting 12 -1.7
2015-Jan-23 18:25 212 9 gusting 13 -1.7
2015-Jan-23 18:15 219 10 gusting 14 -1.7
2015-Jan-23 18:05 219 7 gusting 11 -1.1
2015-Jan-23 17:55 232 9 gusting 13 -1.1
2015-Jan-23 17:45 233 6 gusting 12 -1.1
2015-Jan-23 17:35 233 7 gusting 12 -1.1
2015-Jan-23 17:25 231 9 gusting 13 -0.6
2015-Jan-23 17:15 216 5 gusting 12 -0.6
2015-Jan-23 17:05 213 8 gusting 12 -0.6
2015-Jan-23 16:55 209 6 gusting 8 -1.1
2015-Jan-23 16:45 215 4 gusting 6 -1.1
2015-Jan-23 16:35 220 2 gusting 6 -1.1
2015-Jan-23 16:25 220 5 gusting 7 -1.1
2015-Jan-23 16:15 222 2 gusting 6 -1.1
2015-Jan-23 16:05 221 6 gusting 8 -1.1
2015-Jan-23 15:55 247 3 gusting 10 -1.1
2015-Jan-23 15:45 248 6 gusting 10 -1.1
2015-Jan-23 15:35 259 6 gusting 7 -1.1
2015-Jan-23 15:25 259 6 gusting 10 -0.6
2015-Jan-23 15:15 241 6 gusting 7 -0.6
2015-Jan-23 15:05 243 5 gusting 8 -0.6
2015-Jan-23 14:55 238 3 gusting 10 -0.6
2015-Jan-23 14:45 212 7 gusting 11 -0.6
2015-Jan-23 14:35 213 6 gusting 8 -0.6
2015-Jan-23 14:25 216 6 gusting 11 -0.0
2015-Jan-23 14:15 209 7 gusting 10 -0.0
2015-Jan-23 14:05 252 2 gusting 6 -0.0
2015-Jan-23 13:55 311 0 gusting 4 -0.0
2015-Jan-23 13:45 298 0 gusting 2 -0.0
2015-Jan-23 13:35 257 -0.0
2015-Jan-23 13:25 301 0 gusting 2 -0.0
2015-Jan-23 13:15 260 1 gusting 5 -0.0
2015-Jan-23 13:05 245 4 gusting 6 -0.0
2015-Jan-23 12:55 257 1 gusting 6 -0.0
2015-Jan-23 12:45 252 2 gusting 6 -0.0
2015-Jan-23 12:35 264 3 gusting 5 -0.0
2015-Jan-23 12:25 258 4 gusting 6 -0.0
2015-Jan-23 12:15 270 1 gusting 6 -0.0
2015-Jan-23 12:05 246 3 gusting 6 -0.0
2015-Jan-23 11:55 294 2 gusting 7 -0.0
2015-Jan-23 11:45 244 2 gusting 6 -0.0
2015-Jan-23 11:35 290 4 gusting 7 -0.0
2015-Jan-23 11:25 245 4 gusting 7 -0.0
2015-Jan-23 11:15 259 4 gusting 7 -0.0
2015-Jan-23 11:05 260 4 gusting 7 -0.0
2015-Jan-23 10:55 242 4 gusting 6 -0.0
2015-Jan-23 10:45 286 4 gusting 6 -0.0
2015-Jan-23 10:35 260 4 gusting 7 -0.0
2015-Jan-23 10:25 252 4 gusting 7 -0.0
2015-Jan-23 10:15 260 5 gusting 8 -0.0
2015-Jan-23 10:05 264 4 gusting 7 -0.0